#timestamp,LO_Frequency,Hit,StdDev 
1586113215.4,286047002.2,N
1586113235.3,286047002.0,N
1586113255.1,286047002.6,N
1586113256.0,286047002.6,N
1586113275.8,286047000.3,N
1586113295.7,286047000.7,N
1586113315.5,286046996.6,N
1586113335.4,286046998.8,N
1586113355.2,286046997.1,N
1586113375.0,286046999.6,N
1586113375.9,286046999.6,N
1586113395.8,286047000.7,N
1586113415.6,286047000.2,N
1586113435.4,286047002.5,N
1586113455.3,286047000.2,N
1586113475.1,286046999.6,N
1586113495.9,286047000.7,N
1586113515.7,286047000.9,N
1586113535.5,286047002.3,N
1586113555.4,286047002.3,N
1586113575.2,286047002.7,N
1586113595.0,286047002.1,N
1586113596.0,286047002.1,N
1586113615.8,286046998.8,N
1586113635.6,286046999.1,N
1586113655.5,286046999.3,N
1586113675.3,286047001.1,N
1586113695.1,286047000.7,N
1586113715.9,286046998.2,N
1586113735.7,286047001.2,N
1586113755.6,286047001.0,N
1586113775.4,286047002.7,N
1586113795.2,286047002.6,N
1586113815.1,286046998.3,N
1586113816.0,286046998.3,N
1586113835.8,286047000.4,N
1586113855.7,286046996.6,N
1586113875.5,286047000.1,N
1586113895.3,286047001.9,N
1586113915.2,286047002.2,N
1586113935.0,286047002.0,N
1586113935.9,286047002.0,N
1586113955.7,286047002.7,N
1586113975.6,286047000.1,N
1586113995.4,286047000.0,N
1586114015.3,286046998.6,N
1586114035.1,286046999.1,N
1586114036.0,286046999.1,N
1586114055.8,286047000.5,N
1586114075.7,286047000.1,N
1586114095.5,286046999.8,N
1586114115.4,286047001.7,N
1586114135.2,286047002.6,N
1586114155.0,286047002.8,N
1586114155.9,286047002.8,N
1586114175.8,286047001.1,N
1586114195.6,286046999.9,N
1586114215.4,286047001.6,N
1586114235.3,286047002.0,N
1586114255.1,286047001.9,N
1586114275.9,286047003.5,N
1586114295.7,286047003.4,N
1586114315.5,286047005.9,Y
1586114335.4,286047004.0,P
1586114355.2,286047001.6,N
1586114375.1,286047004.3,P
1586114376.0,286047004.3,N
1586114395.8,286046999.7,N
1586114445.7,286047002.8,E
1586114455.6,286047000.1,N
1586114475.4,286046998.2,P
1586114495.3,286046998.8,N
1586114515.1,286046999.6,N
1586114535.8,286046996.9,Y
1586114555.7,286046998.7,P
1586114575.5,286046998.8,P
1586114595.4,286046998.2,P
1586114615.2,286046998.4,Y
1586114635.0,286047001.1,P
1586114635.9,286047001.1,N
1586114655.8,286047000.6,N
1586114675.6,286047000.6,N
1586114695.5,286046999.7,N
1586114715.3,286047001.2,N
1586114735.1,286047000.7,N
1586114755.9,286046999.3,N
1586114775.7,286046999.1,N
1586114795.6,286046997.3,Y
1586114815.4,286046997.0,P
1586114835.2,286046998.5,N
1586114855.1,286047000.3,N
1586114856.0,286047000.3,N
1586114875.8,286047000.0,N
1586114895.7,286047001.0,N
1586114915.5,286046999.1,N
1586114935.3,286046996.7,N
1586114955.2,286046999.2,N
1586114975.0,286047000.6,N
1586114975.9,286047000.6,N
1586114995.8,286047001.5,N
1586115015.6,286046999.8,N
1586115035.4,286047000.4,N
1586115055.3,286047000.6,N
1586115075.1,286047000.9,N
1586115095.9,286047000.0,N
1586115115.7,286047000.2,N
1586115135.5,286047000.2,N
1586115155.4,286047001.2,N
1586115175.2,286046998.4,N
1586115195.0,286046999.4,N
1586115195.9,286046999.4,N
1586115215.8,286046997.0,N
1586115235.6,286046997.1,N
1586115255.5,286046996.1,N
1586115275.3,286046995.1,Y
1586115295.1,286046997.6,P
1586115315.9,286046997.4,N
1586115335.7,286046995.2,P
1586115355.6,286046996.2,N
1586115375.4,286046995.8,N
1586115395.2,286046993.4,Y
1586115415.1,286046997.6,P
1586115416.0,286046997.6,P
1586115435.8,286046997.7,P
1586115455.7,286046997.5,Y
1586115475.5,286046999.4,P
1586115495.3,286046999.2,N
1586115515.2,286046996.6,P
1586115535.0,286046996.6,N
1586115535.9,286046996.6,N
1586115555.8,286046999.2,N
1586115575.6,286046998.3,N
1586115595.4,286046997.0,N
1586115615.3,286046996.7,N
1586115635.1,286046995.5,Y
1586115655.9,286046998.2,P
1586115675.7,286047001.1,P
1586115695.5,286046998.9,N
1586115715.4,286046998.4,N
1586115735.2,286046996.7,N
1586115755.0,286046997.0,N
1586115755.9,286046997.0,N
1586115775.8,286046997.2,N
1586115795.6,286046997.7,N
1586115815.5,286046997.4,N
1586115835.3,286046996.8,N
1586115855.1,286046997.7,N
1586115875.9,286046997.8,N
1586115895.7,286046997.6,N
1586115915.6,286046994.9,Y
1586115935.4,286046996.8,P
1586115955.2,286046995.3,P
1586115975.1,286046997.3,N
1586115976.0,286046997.3,N
1586115995.8,286046995.4,Y
1586116015.6,286046998.6,P
1586116035.5,286047001.2,N
1586116055.3,286046999.4,N
1586116075.2,286046998.8,N
1586116095.9,286046998.8,N
1586116115.7,286046999.6,N
1586116135.6,286046996.8,N
1586116155.4,286046996.9,N
1586116175.3,286046995.4,Y
1586116195.1,286046997.6,P
1586116196.0,286046997.6,P
1586116215.8,286046997.4,P
1586116235.7,286046997.4,Y
1586116255.5,286046999.6,P
1586116275.4,286046998.6,N
1586116295.2,286046999.4,N
1586116315.0,286047002.7,Y
1586116315.9,286047002.7,P
1586116335.8,286047004.4,N
1586116355.6,286047002.5,N
1586116375.4,286047000.3,N
1586116395.3,286046999.0,N
1586116415.1,286046998.1,N
1586116435.9,286047000.7,N
1586116455.7,286047001.6,N
1586116475.5,286047000.1,N
1586116495.4,286047004.0,N
1586116515.2,286047001.6,N
1586116535.1,286047002.1,N
1586116536.0,286047002.1,N
1586116555.8,286046999.8,N
1586116575.6,286047000.9,N
1586116595.5,286047000.1,N
1586116615.3,286047003.9,N
1586116635.2,286047011.9,Y
1586116655.9,286047002.3,P
1586116675.7,286047002.7,P
1586116695.6,286046999.8,N
1586116715.4,286046999.9,N
1586116735.2,286047002.7,N
1586116755.1,286047000.2,N
1586116756.0,286047000.2,N
1586116775.8,286047001.9,N
1586116795.7,286047002.2,N
